Weather History for KCKC - May, 2013

Change the Weather History Date:

Wednesday, May 8, 2013

  Actual Average Record
Temperature  
Mean Temperature 56 °F -  
Max Temperature 73 °F 54 °F 78 °F (2007)
Min Temperature 39 °F 33 °F 28 °F (2008)
Degree Days  
Heating Degree Days 9    
Growing Degree Days 6 (Base 50)    
Moisture  
Dew Point 40 °F    
Average Humidity 61    
Maximum Humidity 93    
Minimum Humidity 27    
Precipitation  
Precipitation 0.02 in - - ()
Sea Level Pressure  
Sea Level Pressure 30.03 in    
Wind  
Wind Speed 3 mph (West)    
Max Wind Speed 10 mph    
Max Gust Speed 18 mph    
Visibility 10 miles    
Events Rain    
Averages and records for this station are not official NWS values.
T = Trace of Precipitation, MM = Missing Value Source: NWS Daily Summary

Daily Weather History Graph

Daily Weather History Graph

Search for Another Location

Airport or City:

Trip Planner

Search our weather history database for the weather conditions in past years. The results will help you decide how hot, cold, wet, or windy it might be!

Date:

Astronomy

May. 08, 2013 Rise Set
Actual Time 5:32 AM CDT 8:24 PM CDT
Civil Twilight 4:56 AM CDT 9:00 PM CDT
Nautical Twilight 4:11 AM CDT 9:46 PM CDT
Astronomical Twilight 3:16 AM CDT 10:41 PM CDT
Moon 4:46 AM CDT (5/8) 7:19 PM CDT (5/8)
Length of Visible Light 16h 03m
Length of Day
14h 51m
Waning Crescent, 2% of the Moon is Illuminated
May 8
Waning Crescent
May 9
New
May 17
First Quarter
May 24
Full
May 31
Last Quarter

Hourly Weather History & Observations

Time (CDT) Temp. Windchill Dew Point Humidity Pressure Visibility Wind Dir Wind Speed Gust Speed Precip Events Conditions
12:13 AM 41.0 °F - 33.8 °F 76% 30.01 in 10.0 mi Calm Calm - N/A   Mostly Cloudy
12:34 AM 42.8 °F - 35.6 °F 76% 30.01 in 10.0 mi Calm Calm - N/A   Mostly Cloudy
12:53 AM 42.8 °F - 35.6 °F 76% 30.01 in 10.0 mi Calm Calm - N/A   Overcast
1:13 AM 41.0 °F - 33.8 °F 76% 30.00 in 10.0 mi Calm Calm - N/A   Overcast
1:34 AM 42.8 °F - 35.6 °F 76% 30.00 in 10.0 mi Calm Calm - N/A   Overcast
1:54 AM 41.0 °F - 33.8 °F 76% 30.00 in 10.0 mi Calm Calm - N/A   Overcast
2:13 AM 41.0 °F - 33.8 °F 76% 30.00 in 10.0 mi Calm Calm - N/A   Mostly Cloudy
2:34 AM 41.0 °F - 33.8 °F 76% 29.99 in 10.0 mi Calm Calm - N/A   Mostly Cloudy
2:53 AM 41.0 °F - 33.8 °F 76% 29.99 in 10.0 mi Calm Calm - N/A   Overcast
3:13 AM 41.0 °F - 33.8 °F 76% 29.99 in 10.0 mi Calm Calm - N/A   Mostly Cloudy
3:34 AM 39.2 °F 37.0 °F 33.8 °F 81% 29.99 in 10.0 mi West 3.5 mph - N/A   Scattered Clouds
3:53 AM 39.2 °F 37.0 °F 33.8 °F 81% 29.99 in 10.0 mi West 3.5 mph - N/A   Scattered Clouds
4:14 AM 39.2 °F 37.0 °F 33.8 °F 81% 29.99 in 10.0 mi West 3.5 mph - N/A   Scattered Clouds
4:33 AM 42.8 °F 41.1 °F 33.8 °F 70% 29.99 in 10.0 mi West 3.5 mph - N/A   Mostly Cloudy
4:53 AM 41.0 °F 38.0 °F 33.8 °F 76% 29.99 in 10.0 mi West 4.6 mph - N/A   Scattered Clouds
5:14 AM 39.2 °F 35.0 °F 32.0 °F 75% 29.99 in 10.0 mi West 5.8 mph - N/A   Scattered Clouds
5:34 AM 44.6 °F 43.1 °F 33.8 °F 66% 30.00 in 10.0 mi West 3.5 mph - N/A   Mostly Cloudy
5:53 AM 39.2 °F 37.0 °F 32.0 °F 75% 30.00 in 10.0 mi WSW 3.5 mph - N/A   Scattered Clouds
6:14 AM 42.8 °F 39.3 °F 33.8 °F 70% 30.00 in 10.0 mi West 5.8 mph - N/A   Clear
6:33 AM 44.6 °F 43.1 °F 33.8 °F 66% 30.00 in 10.0 mi West 3.5 mph - N/A   Clear
6:53 AM 46.4 °F 43.5 °F 35.6 °F 66% 30.01 in 10.0 mi West 5.8 mph - N/A   Clear
7:14 AM 59.0 °F - 37.4 °F 45% 30.01 in 10.0 mi West 4.6 mph - N/A   Clear
7:33 AM 62.6 °F - 37.4 °F 39% 30.00 in 10.0 mi West 5.8 mph - N/A   Clear
7:53 AM 64.4 °F - 37.4 °F 37% 30.01 in 10.0 mi West 4.6 mph - N/A   Clear
8:14 AM 66.2 °F - 37.4 °F 35% 30.01 in 10.0 mi Calm Calm - N/A   Scattered Clouds
8:33 AM 66.2 °F - 39.2 °F 37% 30.02 in 10.0 mi SW 4.6 mph - N/A   Scattered Clouds
8:53 AM 68.0 °F - 39.2 °F 35% 30.02 in 10.0 mi Calm Calm - N/A   Scattered Clouds
9:14 AM 68.0 °F - 39.2 °F 35% 30.02 in 10.0 mi South 3.5 mph - N/A   Scattered Clouds
9:33 AM 66.2 °F - 39.2 °F 37% 30.02 in 10.0 mi Calm Calm - N/A   Scattered Clouds
9:54 AM 68.0 °F - 39.2 °F 35% 30.02 in 10.0 mi Calm Calm - N/A   Scattered Clouds
10:13 AM 69.8 °F - 37.4 °F 31% 30.02 in 10.0 mi South 4.6 mph - N/A   Scattered Clouds
10:34 AM 71.6 °F - 37.4 °F 29% 30.02 in 10.0 mi South 4.6 mph - N/A   Clear
10:53 AM 73.4 °F - 37.4 °F 27% 30.02 in 10.0 mi WSW 4.6 mph - N/A   Clear
11:13 AM 73.4 °F - 37.4 °F 27% 30.02 in 10.0 mi SSW 8.1 mph - N/A   Clear
11:34 AM 73.4 °F - 37.4 °F 27% 30.02 in 10.0 mi SSW 6.9 mph - N/A   Clear
11:53 AM 73.4 °F - 37.4 °F 27% 30.02 in 10.0 mi South 5.8 mph - N/A   Clear
12:13 PM 73.4 °F - 37.4 °F 27% 30.02 in 10.0 mi South 9.2 mph - N/A   Clear
12:34 PM 73.4 °F - 37.4 °F 27% 30.02 in 10.0 mi South 8.1 mph - N/A   Clear
12:54 PM 71.6 °F - 37.4 °F 29% 30.02 in 10.0 mi South 8.1 mph - N/A   Scattered Clouds
1:13 PM 66.2 °F - 39.2 °F 37% 30.03 in 10.0 mi SSW 4.6 mph - N/A Rain Rain
1:33 PM 66.2 °F - 39.2 °F 37% 30.03 in 10.0 mi SSW 4.6 mph - N/A   Drizzle
1:54 PM 66.2 °F - 39.2 °F 37% 30.02 in 10.0 mi SW 4.6 mph - N/A   Scattered Clouds
2:13 PM 64.4 °F - 42.8 °F 45% 30.04 in 10.0 mi West 8.1 mph - N/A   Mostly Cloudy
2:34 PM 62.6 °F - 42.8 °F 48% 30.04 in 10.0 mi WNW 10.4 mph 16.1 mph N/A   Mostly Cloudy
2:54 PM 62.6 °F - 44.6 °F 52% 30.04 in 10.0 mi WNW 9.2 mph 18.4 mph N/A   Clear
3:13 PM 59.0 °F - 46.4 °F 63% 30.04 in 10.0 mi WNW 5.8 mph - N/A Rain Light Rain
3:33 PM 64.4 °F - 48.2 °F 56% 30.02 in 10.0 mi Calm Calm - N/A   Light Drizzle
3:54 PM 62.6 °F - 48.2 °F 59% 30.02 in 10.0 mi NNW 9.2 mph - N/A   Scattered Clouds
4:13 PM 60.8 °F - 48.2 °F 63% 30.02 in 10.0 mi NNW 9.2 mph - N/A   Mostly Cloudy
4:34 PM 60.8 °F - 46.4 °F 59% 30.03 in 10.0 mi NNW 8.1 mph - N/A   Scattered Clouds
4:53 PM 60.8 °F - 46.4 °F 59% 30.02 in 10.0 mi NNW 9.2 mph - N/A Rain Light Rain
5:14 PM 60.8 °F - 44.6 °F 55% 30.04 in 10.0 mi SW 8.1 mph - N/A Rain Light Rain
5:33 PM 60.8 °F - 44.6 °F 55% 30.04 in 10.0 mi West 5.8 mph - N/A   Overcast
5:53 PM 59.0 °F - 46.4 °F 63% 30.05 in 10.0 mi West 4.6 mph - N/A   Drizzle
6:14 PM 57.2 °F - 48.2 °F 72% 30.04 in 10.0 mi WNW 4.6 mph - N/A Rain Light Rain
6:32 PM 55.4 °F - 48.2 °F 77% 30.04 in 10.0 mi WNW 4.6 mph - N/A Rain Light Rain
6:53 PM 57.2 °F - 46.4 °F 67% 30.06 in 10.0 mi WNW 5.8 mph - N/A Rain Rain
7:14 PM 53.6 °F - 48.2 °F 82% 30.06 in 10.0 mi NW 4.6 mph - 0.01 in Rain Light Rain
7:33 PM 53.6 °F - 48.2 °F 82% 30.06 in 10.0 mi NNW 8.1 mph - 0.01 in   Light Drizzle
7:53 PM 53.6 °F - 46.4 °F 77% 30.06 in 10.0 mi NW 4.6 mph - 0.01 in Rain Light Rain
8:14 PM 53.6 °F - 46.4 °F 77% 30.06 in 10.0 mi ESE 3.5 mph - N/A   Overcast
8:33 PM 51.8 °F - 46.4 °F 82% 30.06 in 10.0 mi SE 3.5 mph - N/A   Overcast
8:54 PM 51.8 °F - 46.4 °F 82% 30.06 in 10.0 mi Calm Calm - N/A Rain Light Rain
9:14 PM 50.0 °F - 44.6 °F 82% 30.07 in 10.0 mi Calm Calm - N/A   Light Drizzle
9:33 PM 50.0 °F - 44.6 °F 82% 30.08 in 10.0 mi SE 3.5 mph - 0.01 in Rain Light Rain
9:54 PM 48.2 °F - 42.8 °F 82% 30.08 in 10.0 mi ESE 3.5 mph - 0.01 in Rain Light Rain
10:13 PM 46.4 °F 44.3 °F 42.8 °F 87% 30.08 in 10.0 mi NE 4.6 mph - N/A   Overcast
10:33 PM 46.4 °F 43.5 °F 42.8 °F 87% 30.08 in 10.0 mi North 5.8 mph - N/A   Mostly Cloudy
10:54 PM 46.4 °F 43.5 °F 42.8 °F 87% 30.08 in 10.0 mi North 5.8 mph - N/A   Scattered Clouds
11:14 PM 46.4 °F 42.4 °F 42.8 °F 87% 30.08 in 10.0 mi North 8.1 mph - N/A   Clear
11:33 PM 46.4 °F 43.5 °F 44.6 °F 93% 30.08 in 10.0 mi North 5.8 mph - N/A   Scattered Clouds
11:54 PM 46.4 °F 42.4 °F 42.8 °F 87% 30.08 in 10.0 mi North 8.1 mph - N/A   Clear